Météo par heure à Kismajo

Ce jour, 25 Février, Jeudi

Heure Température Précipitation Vent Pression Humidité
00:00 +26°C° 0 mm 6 m/s 756 mmHg 85%
01:00 +26°C° 0 mm 6 m/s 756 mmHg 86%
02:00 +26°C° 0 mm 5 m/s 755 mmHg 88%
03:00 +25°C° 0 mm 4 m/s 755 mmHg 90%
04:00 +25°C° 0 mm 4 m/s 756 mmHg 90%
05:00 +25°C° 0 mm 4 m/s 756 mmHg 91%
06:00 +25°C° 0 mm 4 m/s 756 mmHg 92%
07:00 +27°C° 0 mm 4 m/s 756 mmHg 81%
08:00 +28°C° 0 mm 5 m/s 757 mmHg 71%
09:00 +30°C° 0 mm 5 m/s 758 mmHg 60%
10:00 +32°C° 0 mm 5 m/s 757 mmHg 56%
11:00 +34°C° 0 mm 5 m/s 756 mmHg 51%
12:00 +35°C° 0 mm 6 m/s 756 mmHg 47%
13:00 +35°C° 0 mm 6 m/s 755 mmHg 47%
14:00 +34°C° 0 mm 6 m/s 754 mmHg 48%
15:00 +34°C° 0 mm 6 m/s 754 mmHg 49%
16:00 +33°C° 0 mm 6 m/s 754 mmHg 56%
17:00 +30°C° 0 mm 6 m/s 753 mmHg 64%
18:00 +28°C° 0 mm 6 m/s 753 mmHg 72%
19:00 +28°C° 0 mm 7 m/s 754 mmHg 75%
20:00 +27°C° 0 mm 7 m/s 754 mmHg 78%
21:00 +27°C° 0 mm 7 m/s 755 mmHg 81%
22:00 +26°C° 0 mm 7 m/s 755 mmHg 82%
23:00 +26°C° 0 mm 7 m/s 755 mmHg 83%

Demain, 26 Février, Vendredi

Heure Température Précipitation Vent Pression Humidité
00:00 +26°C° 0 mm 6 m/s 755 mmHg 84%
01:00 +26°C° 0 mm 6 m/s 755 mmHg 85%
02:00 +26°C° 0 mm 6 m/s 754 mmHg 87%
03:00 +24°C° 0 mm 6 m/s 754 mmHg 88%
04:00 +26°C° 0 mm 6 m/s 754 mmHg 88%
05:00 +26°C° 0 mm 6 m/s 754 mmHg 88%
06:00 +26°C° 0 mm 6 m/s 755 mmHg 88%
07:00 +27°C° 0 mm 7 m/s 755 mmHg 79%
08:00 +29°C° 0 mm 7 m/s 756 mmHg 71%
09:00 +32°C° 0 mm 8 m/s 756 mmHg 63%
10:00 +33°C° 0 mm 7 m/s 756 mmHg 57%
11:00 +34°C° 0 mm 7 m/s 756 mmHg 51%
12:00 +36°C° 0 mm 6 m/s 755 mmHg 45%
13:00 +35°C° 0 mm 6 m/s 754 mmHg 46%
14:00 +35°C° 0 mm 6 m/s 753 mmHg 47%
15:00 +35°C° 0 mm 6 m/s 753 mmHg 48%
16:00 +33°C° 0 mm 7 m/s 753 mmHg 56%
17:00 +30°C° 0 mm 7 m/s 752 mmHg 64%
18:00 +29°C° 0 mm 7 m/s 752 mmHg 72%
19:00 +28°C° 0 mm 7 m/s 753 mmHg 76%
20:00 +27°C° 0 mm 7 m/s 753 mmHg 79%
21:00 +27°C° 0 mm 7 m/s 754 mmHg 82%
22:00 +27°C° 0 mm 6 m/s 754 mmHg 83%
23:00 +26°C° 0 mm 6 m/s 754 mmHg 84%

Après-demain, 27 Février, Samedi

Heure Température Précipitation Vent Pression Humidité
00:00 +26°C° 0 mm 6 m/s 754 mmHg 85%
01:00 +26°C° 0 mm 6 m/s 753 mmHg 86%
02:00 +26°C° 0 mm 6 m/s 753 mmHg 87%
03:00 +26°C° 0 mm 6 m/s 753 mmHg 88%
04:00 +26°C° 0 mm 6 m/s 753 mmHg 87%
05:00 +26°C° 0 mm 5 m/s 754 mmHg 85%
06:00 +26°C° 0 mm 4 m/s 754 mmHg 84%
07:00 +27°C° 0 mm 5 m/s 755 mmHg 78%
08:00 +28°C° 0 mm 5 m/s 755 mmHg 73%
09:00 +29°C° 0 mm 6 m/s 756 mmHg 67%
10:00 +32°C° 0 mm 6 m/s 755 mmHg 60%
11:00 +34°C° 0 mm 6 m/s 755 mmHg 53%
12:00 +36°C° 0 mm 6 m/s 754 mmHg 45%
13:00 +35°C° 0 mm 6 m/s 754 mmHg 48%
14:00 +35°C° 0 mm 6 m/s 753 mmHg 51%
15:00 +34°C° 0 mm 7 m/s 752 mmHg 54%
16:00 +33°C° 0 mm 7 m/s 752 mmHg 61%
17:00 +31°C° 0 mm 8 m/s 752 mmHg 68%
18:00 +29°C° 0 mm 8 m/s 752 mmHg 75%
19:00 +28°C° 0 mm 8 m/s 753 mmHg 78%
20:00 +28°C° 0 mm 7 m/s 753 mmHg 81%
21:00 +27°C° 0 mm 6 m/s 754 mmHg 84%
22:00 +27°C° 0 mm 6 m/s 754 mmHg 85%
23:00 +27°C° 0 mm 6 m/s 754 mmHg 86%

28 Février, Dimanche

Heure Température Précipitation Vent Pression Humidité
00:00 +27°C° 0 mm 6 m/s 754 mmHg 87%
01:00 +27°C° 0 mm 6 m/s 754 mmHg 85%
02:00 +27°C° 0 mm 6 m/s 754 mmHg 82%
03:00 +28°C° 0 mm 6 m/s 754 mmHg 79%
04:00 +28°C° 0 mm 6 m/s 754 mmHg 77%
05:00 +28°C° 0 mm 6 m/s 754 mmHg 75%
06:00 +28°C° 0 mm 6 m/s 755 mmHg 73%
07:00 +29°C° 0 mm 6 m/s 755 mmHg 71%
08:00 +29°C° 0 mm 5 m/s 756 mmHg 68%
09:00 +30°C° 0 mm 5 m/s 757 mmHg 65%
10:00 +32°C° 0 mm 5 m/s 756 mmHg 60%
11:00 +33°C° 0 mm 5 m/s 756 mmHg 55%
12:00 +35°C° 0 mm 5 m/s 755 mmHg 50%
13:00 +35°C° 0 mm 5 m/s 755 mmHg 51%
14:00 +34°C° 0 mm 5 m/s 754 mmHg 52%
15:00 +34°C° 0 mm 5 m/s 753 mmHg 53%
16:00 +33°C° 0 mm 5 m/s 754 mmHg 59%
17:00 +30°C° 0 mm 6 m/s 754 mmHg 65%
18:00 +29°C° 0 mm 6 m/s 754 mmHg 71%
19:00 +28°C° 0 mm 6 m/s 754 mmHg 73%
20:00 +28°C° 0 mm 6 m/s 755 mmHg 76%
21:00 +27°C° 0 mm 6 m/s 755 mmHg 79%
22:00 +27°C° 0 mm 6 m/s 755 mmHg 79%
23:00 +27°C° 0 mm 5 m/s 755 mmHg 80%

1 Mars, Lundi

Heure Température Précipitation Vent Pression Humidité
00:00 +27°C° 0 mm 5 m/s 755 mmHg 81%
01:00 +27°C° 0 mm 5 m/s 755 mmHg 81%
02:00 +27°C° 0 mm 4 m/s 755 mmHg 82%
03:00 +26°C° 0 mm 4 m/s 754 mmHg 83%
04:00 +26°C° 0 mm 4 m/s 755 mmHg 83%
05:00 +26°C° 0 mm 4 m/s 755 mmHg 84%
06:00 +26°C° 0 mm 4 m/s 756 mmHg 84%
07:00 +28°C° 0 mm 4 m/s 756 mmHg 75%
08:00 +30°C° 0 mm 5 m/s 757 mmHg 66%
09:00 +32°C° 0 mm 5 m/s 757 mmHg 57%
10:00 +34°C° 0 mm 5 m/s 757 mmHg 53%
11:00 +35°C° 0 mm 6 m/s 756 mmHg 49%
12:00 +36°C° 0 mm 6 m/s 755 mmHg 45%
13:00 +36°C° 0 mm 6 m/s 755 mmHg 46%
14:00 +36°C° 0 mm 7 m/s 754 mmHg 47%
15:00 +36°C° 0 mm 7 m/s 753 mmHg 48%
16:00 +34°C° 0 mm 7 m/s 753 mmHg 56%
17:00 +32°C° 0 mm 8 m/s 753 mmHg 63%
18:00 +29°C° 0 mm 8 m/s 753 mmHg 71%
19:00 +29°C° 0 mm 7 m/s 753 mmHg 74%
20:00 +28°C° 0 mm 7 m/s 754 mmHg 77%
21:00 +28°C° 0 mm 7 m/s 754 mmHg 80%
22:00 +28°C° 0 mm 6 m/s 754 mmHg 81%
23:00 +27°C° 0 mm 6 m/s 755 mmHg 82%

2 Mars, Mardi

Heure Température Précipitation Vent Pression Humidité
00:00 +27°C° 0 mm 6 m/s 755 mmHg 83%
01:00 +27°C° 0 mm 6 m/s 755 mmHg 85%
02:00 +26°C° 0 mm 5 m/s 754 mmHg 87%
03:00 +26°C° 0 mm 5 m/s 754 mmHg 90%
04:00 +26°C° 0 mm 5 m/s 755 mmHg 90%
05:00 +26°C° 0 mm 5 m/s 755 mmHg 90%
06:00 +26°C° 0 mm 5 m/s 756 mmHg 90%
07:00 +28°C° 0 mm 5 m/s 756 mmHg 80%
08:00 +29°C° 0 mm 5 m/s 756 mmHg 70%
09:00 +32°C° 0 mm 5 m/s 757 mmHg 59%
10:00 +34°C° 0 mm 6 m/s 756 mmHg 54%
11:00 +35°C° 0 mm 6 m/s 756 mmHg 50%
12:00 +36°C° 0 mm 7 m/s 755 mmHg 45%
13:00 +36°C° 0 mm 7 m/s 755 mmHg 48%
14:00 +35°C° 0 mm 8 m/s 754 mmHg 50%
15:00 +35°C° 0 mm 8 m/s 753 mmHg 53%
16:00 +33°C° 0 mm 8 m/s 753 mmHg 58%
17:00 +32°C° 0 mm 8 m/s 753 mmHg 63%
18:00 +29°C° 0 mm 8 m/s 753 mmHg 67%
19:00 +29°C° 0 mm 8 m/s 753 mmHg 71%
20:00 +28°C° 0 mm 7 m/s 754 mmHg 76%
21:00 +27°C° 0 mm 7 m/s 754 mmHg 80%
22:00 +27°C° 0 mm 7 m/s 754 mmHg 80%
23:00 +27°C° 0 mm 7 m/s 754 mmHg 81%
Voir plus

Nous avons besoin de votre consentement

Meteoprog et ses fournisseurs de services peuvent stocker et accéder à des données personnelles telles que des cookies, des identifiants d'appareils ou d'autres technologies similaires sur votre appareil et traiter ces données pour personnaliser le contenu et les publicités, ainsi que pour fournir des fonctionnalités de médias sociaux et analyser le trafic.

  • Stocker et/ou accéder à des informations sur votre appareil

    Des cookies, des identifiants d'appareils ou d'autres informations peuvent être stockés ou accessibles sur votre appareil aux fins indiquées ci-dessus.

  • Annonces et contenus personnalisés, mesure des annonces et des contenus, connaissance de l'audience et développement de produits

    Les annonces et le contenu peuvent être personnalisés en fonction d'un profil. D'autres données peuvent être ajoutées pour mieux personnaliser les annonces et le contenu. Les performances des publicités et du contenu peuvent être mesurées. Il est possible d'obtenir des informations sur le public qui a vu les publicités et le contenu. Ces données peuvent être utilisées pour développer ou améliorer l'expérience de l'utilisateur, les systèmes et les logiciels.

En cliquant sur "J'accepte", vous autorisez l'utilisation de cookies, des identifiants d'appareils, des balises web ou d'autres technologies similaires. Vos paramètres peuvent être modifiés dans le navigateur de votre appareil.

Dans certains cas, des intérêts légitimes peuvent être invoqués plutôt qu'un consentement. Vous pouvez en savoir plus à ce sujet dans notre Politique de confidentialité et de cookies.